Linden Pride — H3VP — position and weather

sailwx.info

Track history (hours):
 
Tides and Currents Weather Stations Pressure Air Temp Water Temp Dewpoint Dewpoint Depression Visibility Wind Speed Wind Dir Waves Ship Positions

Linden Pride

Last reported at 2014-Nov-17 04:16 UTC. Time now 2014-Nov-21 16:43 UTC.
Position N 33°55' E 134°54'.

Length 230 m; beam 36.6 m.

Type: Tanker. MMSI: 356677000.

Date/timePositionNaut miles runAvg speedWind from/ knotsBaromVisibWave heightAir tempDewpointWater temp
2014-Nov-17 04:16N 33°55' E 134°54'1115.5
2014-Nov-17 03:33N 34°06' E 134°57'1312.3
2014-Nov-17 02:30N 34°19' E 134°59'1313.5
2014-Nov-17 01:33N 34°29' E 135°08'1111.4
2014-Nov-17 00:33N 34°39' E 135°16'4 3.2
2014-Nov-16 23:26N 34°42' E 135°15'0 0.0
2014-Nov-16 22:32N 34°42' E 135°15'0 0.0
2014-Nov-16 21:20N 34°42' E 135°15'0 0.0
2014-Nov-16 20:32N 34°42' E 135°15'0 0.0
2014-Nov-16 19:26N 34°42' E 135°15'0 0.0
2014-Nov-16 18:32N 34°42' E 135°15'0 0.0
2014-Nov-16 17:32N 34°42' E 135°15'0 0.0
2014-Nov-16 16:26N 34°42' E 135°15'0 0.0
2014-Nov-16 15:32N 34°42' E 135°15'0 0.0
2014-Nov-16 14:32N 34°42' E 135°15'0 0.0
2014-Nov-16 13:32N 34°42' E 135°15'0 0.0
2014-Nov-16 12:32N 34°42' E 135°15'0 0.0
2014-Nov-16 11:32N 34°42' E 135°15'0 0.0
2014-Nov-16 10:26N 34°42' E 135°15'0 0.0
2014-Nov-16 09:32N 34°42' E 135°15'0 0.0
2014-Nov-16 08:32N 34°42' E 135°15'0 0.0
2014-Nov-16 07:26N 34°42' E 135°15'0 0.0
2014-Nov-16 06:32N 34°42' E 135°15'0 0.0
2014-Nov-16 05:20N 34°42' E 135°15'0 0.0
2014-Nov-16 04:32N 34°42' E 135°15'0 0.0
2014-Nov-16 03:32N 34°42' E 135°15'0 0.0
2014-Nov-16 02:32N 34°42' E 135°15'0 0.0
2014-Nov-16 01:32N 34°42' E 135°15'1 1.4
2014-Nov-16 00:33N 34°41' E 135°15'10 9.9
2014-Nov-15 23:33N 34°31' E 135°12'1514.7
2014-Nov-15 22:33N 34°19' E 135°01'1111.5
2014-Nov-15 21:33N 34°08' E 134°59'5 5.5
2014-Nov-15 20:33N 34°03' E 134°58'6 5.5
2014-Nov-15 19:33N 33°57' E 134°57'8 7.7
2014-Nov-15 18:33N 33°50' E 134°56'246 6.3
2014-Nov-14 03:27N 35°02' E 139°41'1112.1
2014-Nov-14 02:33N 35°12' E 139°46'1212.3
2014-Nov-14 01:33N 35°24' E 139°43'1412.9
2014-Nov-14 00:29N 35°31' E 139°57'  
2014-Nov-11 03:30N 35°31' E 139°46'2 2.6
2014-Nov-11 02:33N 35°29' E 139°48'9 8.7
2014-Nov-11 01:33N 35°21' E 139°45'1111.0
2014-Nov-11 00:33N 35°10' E 139°47'7 5.1
2014-Nov-10 23:10N 35°04' E 139°43'3 5.4
2014-Nov-10 22:33N 35°01' E 139°41'  
Track history (hours):
 
Tides and Currents Weather Stations Pressure Air Temp Water Temp Dewpoint Dewpoint Depression Visibility Wind Speed Wind Dir Waves Ship Positions

Linden Pride

Last reported at 2014-Nov-17 04:16 UTC. Time now 2014-Nov-21 16:43 UTC.
Position N 33°55' E 134°54'.

Length 230 m; beam 36.6 m.

Type: Tanker. MMSI: 356677000.

Date/timePositionNaut miles runAvg speedWind from/ knotsBaromVisibWave heightAir tempDewpointWater temp
2014-Nov-17 04:16N 33°55' E 134°54'1115.5
2014-Nov-17 03:33N 34°06' E 134°57'1312.3
2014-Nov-17 02:30N 34°19' E 134°59'1313.5
2014-Nov-17 01:33N 34°29' E 135°08'1111.4
2014-Nov-17 00:33N 34°39' E 135°16'4 3.2
2014-Nov-16 23:26N 34°42' E 135°15'0 0.0
2014-Nov-16 22:32N 34°42' E 135°15'0 0.0
2014-Nov-16 21:20N 34°42' E 135°15'0 0.0
2014-Nov-16 20:32N 34°42' E 135°15'0 0.0
2014-Nov-16 19:26N 34°42' E 135°15'0 0.0
2014-Nov-16 18:32N 34°42' E 135°15'0 0.0
2014-Nov-16 17:32N 34°42' E 135°15'0 0.0
2014-Nov-16 16:26N 34°42' E 135°15'0 0.0
2014-Nov-16 15:32N 34°42' E 135°15'0 0.0
2014-Nov-16 14:32N 34°42' E 135°15'0 0.0
2014-Nov-16 13:32N 34°42' E 135°15'0 0.0
2014-Nov-16 12:32N 34°42' E 135°15'0 0.0
2014-Nov-16 11:32N 34°42' E 135°15'0 0.0
2014-Nov-16 10:26N 34°42' E 135°15'0 0.0
2014-Nov-16 09:32N 34°42' E 135°15'0 0.0
2014-Nov-16 08:32N 34°42' E 135°15'0 0.0
2014-Nov-16 07:26N 34°42' E 135°15'0 0.0
2014-Nov-16 06:32N 34°42' E 135°15'0 0.0
2014-Nov-16 05:20N 34°42' E 135°15'0 0.0
2014-Nov-16 04:32N 34°42' E 135°15'0 0.0
2014-Nov-16 03:32N 34°42' E 135°15'0 0.0
2014-Nov-16 02:32N 34°42' E 135°15'0 0.0
2014-Nov-16 01:32N 34°42' E 135°15'1 1.4
2014-Nov-16 00:33N 34°41' E 135°15'10 9.9
2014-Nov-15 23:33N 34°31' E 135°12'1514.7
2014-Nov-15 22:33N 34°19' E 135°01'1111.5
2014-Nov-15 21:33N 34°08' E 134°59'5 5.5
2014-Nov-15 20:33N 34°03' E 134°58'6 5.5
2014-Nov-15 19:33N 33°57' E 134°57'8 7.7
2014-Nov-15 18:33N 33°50' E 134°56'246 6.3
2014-Nov-14 03:27N 35°02' E 139°41'1112.1
2014-Nov-14 02:33N 35°12' E 139°46'1212.3
2014-Nov-14 01:33N 35°24' E 139°43'1412.9
2014-Nov-14 00:29N 35°31' E 139°57'  
2014-Nov-11 03:30N 35°31' E 139°46'2 2.6
2014-Nov-11 02:33N 35°29' E 139°48'9 8.7
2014-Nov-11 01:33N 35°21' E 139°45'1111.0
2014-Nov-11 00:33N 35°10' E 139°47'7 5.1
2014-Nov-10 23:10N 35°04' E 139°43'3 5.4
2014-Nov-10 22:33N 35°01' E 139°41'  

Dump ship's entire track history